contact:dominique.lefevre@mio.osupytheas.fr, maurice.libes@osupytheas.fr, didier.mallarino@osupytheas.fr
Project:EMSO http://www.emso-fr.org/EMSO-France
Depth: 2436.0 m
Title:EMSO Ligure Ouest : Data MII capteur AQUADOPP
Date,Latitude,Longitude,X_East,Y_North,Z_Up,Amplitude_X,Amplitude_Y,Amplitude_Z,Batterie,SoundSpeed,Heading,Pitch,Roll,Pressure,TIS,Speed,Direction
, degrees North, degrees East, m.s-1, m.s-1,m.s-1, 1, 1, 1, Volt, m.s-1, degree, degree, degree, dbar, degree_C, m.s-1, degree
2023-08-14T00:04:03,42.805,6.029,0.01,0.001,0.002,103.0,102.0,101.0,13.4,1505.2,341.5,-0.8,1.8,2471.424,13.29,0.01,84.3
2023-08-14T00:07:03,42.805,6.029,0.027,0.007,-0.022,102.0,102.0,101.0,13.3,1505.2,336.0,-0.8,1.8,2471.467,13.29,0.027,75.5
2023-08-14T00:10:03,42.805,6.029,0.016,0.014,-0.018,103.0,103.0,100.0,13.3,1505.2,328.2,-0.7,1.8,2471.455,13.29,0.021,48.8
2023-08-14T00:13:03,42.805,6.029,0.012,0.007,-0.031,104.0,102.0,101.0,13.4,1505.2,320.5,-0.8,1.8,2471.44,13.29,0.013,59.7
2023-08-14T00:16:03,42.805,6.029,0.016,-0.005,-0.02,102.0,102.0,102.0,13.4,1505.2,327.6,-0.8,1.8,2471.428,13.29,0.016,107.4
2023-08-14T00:19:03,42.805,6.029,0.013,0.006,-0.041,103.0,101.0,102.0,13.4,1505.2,338.8,-0.7,1.8,2471.442,13.29,0.014,65.2
2023-08-14T00:22:03,42.805,6.029,0.022,0.023,-0.02,102.0,102.0,102.0,13.4,1505.2,323.8,-0.8,1.8,2471.413,13.29,0.031,43.7
2023-08-14T00:25:03,42.805,6.029,0.015,0.014,-0.014,101.0,103.0,102.0,13.4,1505.2,327.8,-0.8,1.8,2471.413,13.29,0.02,47.0
2023-08-14T00:28:03,42.805,6.029,0.021,-0.01,-0.016,102.0,101.0,103.0,13.4,1505.2,339.5,-0.8,1.8,2471.428,13.29,0.023,115.5
2023-08-14T00:31:03,42.805,6.029,0.02,0.016,-0.005,103.0,102.0,101.0,13.4,1505.2,340.9,-0.8,1.8,2471.397,13.29,0.025,51.3
2023-08-14T00:34:03,42.805,6.029,0.004,-0.003,-0.069,103.0,103.0,101.0,13.3,1505.2,324.5,-0.8,1.8,2471.366,13.29,0.005,126.9
2023-08-14T00:37:03,42.805,6.029,0.03,-0.019,-0.013,102.0,102.0,102.0,13.3,1505.2,342.5,-0.8,1.8,2471.393,13.29,0.035,122.3
2023-08-14T00:40:03,42.805,6.029,0.009,0.005,-0.014,102.0,103.0,101.0,13.4,1505.2,327.8,-0.8,1.8,2471.448,13.29,0.01,60.9
2023-08-14T00:43:03,42.805,6.029,0.01,-0.026,-0.026,103.0,103.0,101.0,13.4,1505.2,338.8,-0.8,1.8,2471.432,13.29,0.027,159.0
2023-08-14T00:46:03,42.805,6.029,0.01,0.009,-0.014,102.0,103.0,100.0,13.4,1505.2,326.0,-0.8,1.8,2471.396,13.29,0.013,48.0
2023-08-14T00:49:03,42.805,6.029,0.033,0.003,-0.001,102.0,102.0,101.0,13.3,1505.2,333.9,-0.8,1.8,2471.431,13.29,0.033,84.8
2023-08-14T00:52:03,42.805,6.029,0.026,-0.015,-0.014,102.0,102.0,101.0,13.4,1505.2,343.1,-0.8,1.8,2471.42,13.29,0.03,120.0
2023-08-14T00:55:03,42.805,6.029,0.032,-0.007,-0.041,103.0,102.0,102.0,13.3,1505.2,323.6,-0.8,1.8,2471.444,13.29,0.032,102.3
2023-08-14T00:58:03,42.805,6.029,-0.002,0.0,-0.019,103.0,102.0,102.0,13.4,1505.2,339.3,-0.7,1.8,2471.394,13.29,0.002,270.0
2023-08-14T01:04:03,42.805,6.029,-0.001,-0.026,0.029,102.0,103.0,103.0,13.4,1505.2,346.2,-0.8,1.8,2471.432,13.28,0.026,182.2
2023-08-14T01:07:03,42.805,6.029,0.017,-0.002,-0.004,102.0,103.0,102.0,13.4,1505.2,329.0,-0.8,1.8,2471.413,13.29,0.017,96.7
2023-08-14T01:10:03,42.805,6.029,0.031,-0.006,-0.032,103.0,101.0,101.0,13.3,1505.2,327.7,-0.8,1.8,2471.421,13.29,0.031,101.0
2023-08-14T01:13:03,42.805,6.029,-0.003,-0.001,-0.041,102.0,103.0,101.0,13.4,1505.2,347.9,-0.8,1.8,2471.401,13.29,0.003,251.6
2023-08-14T01:16:03,42.805,6.029,0.004,0.008,-0.001,102.0,102.0,102.0,13.4,1505.2,338.2,-0.8,1.8,2471.409,13.29,0.008,26.6
2023-08-14T01:19:03,42.805,6.029,0.002,-0.007,-0.01,103.0,102.0,101.0,13.3,1505.2,345.3,-0.7,1.8,2471.421,13.29,0.007,164.1
2023-08-14T01:22:02,42.805,6.029,0.003,0.004,-0.009,103.0,103.0,102.0,13.3,1505.2,336.6,-0.7,1.8,2471.412,13.29,0.005,36.9
2023-08-14T01:25:03,42.805,6.029,0.022,0.001,-0.034,102.0,102.0,101.0,13.4,1505.2,332.1,-0.7,1.8,2471.386,13.29,0.022,87.4
2023-08-14T01:28:03,42.805,6.029,0.017,-0.002,-0.04,102.0,102.0,101.0,13.4,1505.2,350.1,-0.7,1.9,2471.427,13.29,0.017,96.7
2023-08-14T01:31:03,42.805,6.029,-0.007,0.006,0.003,102.0,103.0,101.0,13.4,1505.2,327.0,-0.8,1.8,2471.397,13.29,0.009,310.6
2023-08-14T01:34:03,42.805,6.029,0.017,-0.002,-0.023,103.0,101.0,102.0,13.3,1505.2,328.6,-0.8,1.8,2471.402,13.29,0.017,96.7
2023-08-14T01:37:03,42.805,6.029,0.034,-0.004,-0.015,101.0,103.0,102.0,13.4,1505.2,348.9,-0.8,1.8,2471.404,13.29,0.034,96.7
2023-08-14T01:40:03,42.805,6.029,0.024,-0.01,-0.014,104.0,102.0,101.0,13.4,1505.2,325.4,-0.8,1.8,2471.395,13.29,0.026,112.6
2023-08-14T01:43:03,42.805,6.029,0.014,0.008,0.008,103.0,102.0,102.0,13.3,1505.2,332.5,-0.7,1.9,2471.395,13.29,0.016,60.3
2023-08-14T01:46:03,42.805,6.029,0.02,-0.003,-0.012,102.0,103.0,101.0,13.4,1505.2,327.8,-0.7,1.8,2471.395,13.29,0.02,98.5
2023-08-14T01:49:03,42.805,6.029,0.061,-0.044,-0.043,104.0,103.0,100.0,13.4,1505.2,330.6,-0.8,1.9,2471.391,13.29,0.075,125.8
2023-08-14T01:52:03,42.805,6.029,0.012,-0.015,-0.043,102.0,103.0,101.0,13.4,1505.2,338.5,-0.8,1.8,2471.386,13.29,0.019,141.3
2023-08-14T01:55:03,42.805,6.029,0.007,-0.006,-0.03,101.0,101.0,102.0,13.4,1505.2,332.5,-0.8,1.8,2471.425,13.29,0.009,130.6
2023-08-14T01:58:03,42.805,6.029,0.034,0.0,-0.002,102.0,102.0,103.0,13.4,1505.2,332.9,-0.8,1.8,2471.408,13.29,0.034,90.0
2023-08-14T02:04:03,42.805,6.029,0.022,-0.024,-0.003,104.0,102.0,102.0,13.3,1505.2,342.3,-0.8,1.8,2471.433,13.28,0.032,137.5
2023-08-14T02:07:03,42.805,6.029,0.024,-0.017,-0.054,102.0,103.0,102.0,13.4,1505.2,330.2,-0.8,1.8,2471.473,13.29,0.029,125.3
2023-08-14T02:10:03,42.805,6.029,0.03,-0.008,0.0,102.0,102.0,102.0,13.4,1505.2,344.9,-0.7,1.8,2471.419,13.29,0.031,104.9
2023-08-14T02:13:03,42.805,6.029,0.011,-0.011,-0.042,103.0,103.0,102.0,13.4,1505.2,321.4,-0.7,1.8,2471.428,13.29,0.015,135.0
2023-08-14T02:16:03,42.805,6.029,0.033,-0.012,-0.013,104.0,103.0,100.0,13.3,1505.2,324.6,-0.8,1.8,2471.414,13.29,0.035,110.0
2023-08-14T02:19:03,42.805,6.029,0.032,-0.011,-0.002,103.0,103.0,102.0,13.3,1505.2,329.8,-0.8,1.8,2471.446,13.29,0.033,109.0
2023-08-14T02:22:03,42.805,6.029,0.01,-0.015,-0.024,104.0,103.0,101.0,13.4,1505.2,350.7,-0.8,1.8,2471.433,13.29,0.018,146.3
2023-08-14T02:25:03,42.805,6.029,0.033,-0.01,-0.022,104.0,104.0,101.0,13.4,1505.2,325.3,-0.8,1.8,2471.417,13.29,0.034,106.9
2023-08-14T02:28:03,42.805,6.029,0.029,-0.01,-0.002,104.0,103.0,100.0,13.4,1505.2,325.4,-0.8,1.8,2471.414,13.29,0.03,109.0
2023-08-14T02:31:03,42.805,6.029,0.015,-0.02,-0.008,104.0,104.0,100.0,13.4,1505.2,346.5,-0.8,1.8,2471.408,13.29,0.025,143.1
2023-08-14T02:34:03,42.805,6.029,0.029,-0.023,0.01,103.0,105.0,100.0,13.3,1505.2,330.8,-0.8,1.8,2471.418,13.29,0.037,128.4
2023-08-14T02:37:03,42.805,6.029,0.048,0.017,0.013,102.0,102.0,102.0,13.4,1505.2,322.5,-0.8,1.8,2471.425,13.29,0.05,70.5
2023-08-14T02:40:03,42.805,6.029,0.012,-0.012,-0.028,102.0,102.0,101.0,13.4,1505.2,341.5,-0.8,1.8,2471.392,13.29,0.016,135.0
2023-08-14T02:43:03,42.805,6.029,0.026,-0.061,-0.026,103.0,103.0,101.0,13.3,1505.2,343.1,-0.8,1.8,2471.387,13.29,0.066,156.9
2023-08-14T02:46:03,42.805,6.029,0.013,-0.018,-0.035,103.0,102.0,102.0,13.3,1505.2,326.3,-0.7,1.8,2471.416,13.29,0.022,144.2
2023-08-14T02:49:03,42.805,6.029,0.033,-0.025,-0.008,104.0,102.0,100.0,13.3,1505.2,332.5,-0.7,1.8,2471.413,13.29,0.041,127.1
2023-08-14T02:52:03,42.805,6.029,0.025,-0.049,-0.036,104.0,102.0,101.0,13.4,1505.2,350.7,-0.8,1.8,2471.395,13.29,0.055,153.0
2023-08-14T02:55:03,42.805,6.029,0.0,-0.029,-0.041,102.0,102.0,102.0,13.4,1505.2,350.5,-0.8,1.8,2471.377,13.29,0.028,180.0
2023-08-14T02:58:03,42.805,6.029,0.023,-0.011,-0.013,102.0,103.0,102.0,13.4,1505.2,322.2,-0.7,1.8,2471.401,13.29,0.025,115.6
2023-08-14T03:04:03,42.805,6.029,0.029,-0.026,-0.032,104.0,102.0,101.0,13.4,1505.2,338.8,-0.8,1.8,2471.481,13.28,0.038,131.9
2023-08-14T03:07:03,42.805,6.029,0.022,-0.024,-0.018,102.0,103.0,102.0,13.4,1505.2,345.9,-0.8,1.8,2471.473,13.28,0.032,137.5
2023-08-14T03:10:03,42.805,6.029,0.034,-0.035,-0.035,103.0,103.0,102.0,13.4,1505.2,322.3,-0.8,1.8,2471.495,13.29,0.048,135.8
2023-08-14T03:13:03,42.805,6.029,0.028,-0.004,-0.028,103.0,103.0,102.0,13.4,1505.2,326.0,-0.7,1.8,2471.487,13.29,0.028,98.1
2023-08-14T03:16:03,42.805,6.029,0.007,-0.005,-0.014,104.0,102.0,100.0,13.4,1505.2,329.8,-0.8,1.8,2471.49,13.29,0.008,125.5
2023-08-14T03:19:03,42.805,6.029,0.03,-0.012,-0.006,103.0,104.0,101.0,13.4,1505.2,332.1,-0.7,1.8,2471.439,13.29,0.032,111.8
2023-08-14T03:22:03,42.805,6.029,0.02,-0.025,-0.046,103.0,103.0,102.0,13.4,1505.2,331.3,-0.7,1.8,2471.462,13.29,0.032,141.3
2023-08-14T03:25:03,42.805,6.029,0.025,-0.024,-0.021,102.0,104.0,102.0,13.4,1505.2,332.5,-0.8,1.8,2471.472,13.29,0.034,133.8
2023-08-14T03:28:03,42.805,6.029,-0.001,-0.011,-0.04,103.0,103.0,102.0,13.4,1505.2,333.0,-0.8,1.8,2471.476,13.29,0.011,185.2
2023-08-14T03:31:03,42.805,6.029,0.009,-0.034,-0.016,103.0,103.0,101.0,13.4,1505.2,350.3,-0.8,1.8,2471.433,13.29,0.035,165.2
2023-08-14T03:34:03,42.805,6.029,0.021,-0.004,-0.034,102.0,102.0,102.0,13.3,1505.2,323.1,-0.8,1.8,2471.421,13.29,0.021,100.8
2023-08-14T03:37:03,42.805,6.029,0.021,-0.038,-0.052,103.0,102.0,101.0,13.4,1505.2,327.1,-0.8,1.8,2471.439,13.29,0.043,151.1
2023-08-14T03:40:03,42.805,6.029,0.012,-0.032,0.009,103.0,103.0,101.0,13.4,1505.2,351.0,-0.7,1.8,2471.419,13.29,0.034,159.4
2023-08-14T03:43:03,42.805,6.029,0.007,-0.009,-0.02,103.0,102.0,101.0,13.4,1505.2,341.2,-0.7,1.9,2471.479,13.29,0.011,142.1
2023-08-14T03:46:03,42.805,6.029,0.021,-0.006,0.021,103.0,103.0,101.0,13.4,1505.2,336.1,-0.8,1.8,2471.393,13.29,0.021,105.9
2023-08-14T03:49:03,42.805,6.029,0.011,-0.022,-0.041,103.0,103.0,102.0,13.4,1505.2,338.4,-0.8,1.8,2471.438,13.29,0.024,153.4
2023-08-14T03:52:03,42.805,6.029,0.014,-0.003,-0.009,103.0,103.0,101.0,13.4,1505.2,348.6,-0.7,1.8,2471.403,13.29,0.014,102.1
2023-08-14T03:55:03,42.805,6.029,0.02,-0.025,-0.033,102.0,102.0,102.0,13.4,1505.2,327.8,-0.8,1.8,2471.457,13.29,0.032,141.3
2023-08-14T03:58:03,42.805,6.029,0.021,-0.032,-0.011,103.0,102.0,101.0,13.3,1505.2,334.3,-0.7,1.8,2471.418,13.29,0.038,146.7
2023-08-14T04:04:03,42.805,6.029,0.015,-0.016,-0.023,103.0,103.0,101.0,13.4,1505.2,322.1,-0.8,1.8,2471.471,13.28,0.021,136.9
2023-08-14T04:07:03,42.805,6.029,0.025,-0.001,-0.015,102.0,103.0,101.0,13.4,1505.2,332.5,-0.8,1.8,2471.493,13.29,0.025,92.3
2023-08-14T04:10:03,42.805,6.029,0.018,-0.024,-0.049,102.0,103.0,102.0,13.4,1505.2,338.5,-0.8,1.8,2471.562,13.29,0.03,143.1
2023-08-14T04:13:03,42.805,6.029,0.016,0.0,-0.026,102.0,103.0,102.0,13.4,1505.2,331.3,-0.7,1.8,2471.467,13.29,0.016,90.0
2023-08-14T04:16:03,42.805,6.029,0.018,-0.031,-0.033,102.0,103.0,100.0,13.4,1505.2,330.6,-0.8,1.8,2471.466,13.29,0.035,149.9
2023-08-14T04:19:03,42.805,6.029,0.012,-0.013,-0.052,104.0,103.0,101.0,13.3,1505.2,331.8,-0.7,1.8,2471.502,13.29,0.017,137.3
2023-08-14T04:22:03,42.805,6.029,0.002,-0.043,-0.027,102.0,102.0,101.0,13.4,1505.2,350.9,-0.7,1.8,2471.473,13.29,0.043,177.3
2023-08-14T04:25:03,42.805,6.029,0.036,-0.031,-0.051,104.0,103.0,100.0,13.4,1505.2,326.9,-0.7,1.8,2471.49,13.29,0.047,130.7
2023-08-14T04:28:03,42.805,6.029,0.008,-0.017,-0.003,104.0,103.0,100.0,13.4,1505.2,329.7,-0.7,1.8,2471.476,13.29,0.018,154.8
2023-08-14T04:31:03,42.805,6.029,0.017,-0.015,-0.009,103.0,102.0,101.0,13.4,1505.2,330.7,-0.8,1.8,2471.454,13.29,0.022,131.4
2023-08-14T04:34:03,42.805,6.029,0.012,-0.003,-0.046,104.0,101.0,103.0,13.4,1505.2,320.3,-0.7,1.8,2471.483,13.29,0.012,104.0
2023-08-14T04:37:03,42.805,6.029,0.009,-0.026,-0.043,103.0,102.0,101.0,13.4,1505.2,341.1,-0.8,1.8,2471.461,13.29,0.027,160.9
2023-08-14T04:40:03,42.805,6.029,0.006,-0.04,-0.035,102.0,102.0,101.0,13.4,1505.2,325.4,-0.8,1.8,2471.478,13.29,0.04,171.5
2023-08-14T04:43:03,42.805,6.029,0.023,-0.03,-0.025,103.0,101.0,101.0,13.4,1505.2,326.9,-0.7,1.8,2471.478,13.29,0.037,142.5
2023-08-14T04:46:03,42.805,6.029,0.006,-0.02,-0.034,104.0,100.0,102.0,13.3,1505.2,335.6,-0.8,1.8,2471.479,13.29,0.02,163.3
2023-08-14T04:49:03,42.805,6.029,0.026,-0.03,-0.059,103.0,101.0,102.0,13.4,1505.2,321.9,-0.8,1.8,2471.473,13.29,0.039,139.1
2023-08-14T04:52:03,42.805,6.029,0.006,0.0,-0.04,103.0,102.0,101.0,13.4,1505.2,336.0,-0.8,1.9,2471.475,13.29,0.006,90.0
2023-08-14T04:55:03,42.805,6.029,0.007,-0.023,-0.045,102.0,102.0,102.0,13.3,1505.2,351.7,-0.7,1.8,2471.467,13.29,0.024,163.1
2023-08-14T04:58:03,42.805,6.029,0.021,-0.014,-0.016,102.0,102.0,102.0,13.3,1505.2,340.5,-0.8,1.8,2471.488,13.29,0.025,123.7
2023-08-14T05:01:03,42.805,6.029,-0.01,-0.026,-0.059,103.0,103.0,101.0,13.4,1505.2,336.6,-0.8,1.8,2471.462,13.29,0.027,201.0
2023-08-14T05:04:03,42.805,6.029,0.024,-0.033,-0.05,103.0,104.0,101.0,13.4,1505.2,334.2,-0.7,1.8,2471.507,13.29,0.04,144.0
2023-08-14T05:07:03,42.805,6.029,0.023,-0.034,-0.04,103.0,102.0,101.0,13.4,1505.2,326.3,-0.8,1.8,2471.43,13.29,0.041,145.9
2023-08-14T05:10:03,42.805,6.029,-0.005,-0.027,0.016,102.0,101.0,101.0,13.4,1505.2,350.1,-0.7,1.8,2471.462,13.29,0.027,190.5
2023-08-14T05:13:03,42.805,6.029,0.022,-0.023,-0.028,103.0,102.0,102.0,13.4,1505.2,338.9,-0.7,1.8,2471.464,13.29,0.031,136.3
2023-08-14T05:16:03,42.805,6.029,0.003,-0.007,-0.039,103.0,101.0,101.0,13.4,1505.2,339.8,-0.7,1.8,2471.497,13.29,0.007,156.8
2023-08-14T05:19:03,42.805,6.029,0.005,-0.027,-0.04,103.0,102.0,100.0,13.4,1505.2,323.8,-0.8,1.8,2471.471,13.29,0.027,169.5
2023-08-14T05:22:03,42.805,6.029,0.004,-0.018,-0.013,102.0,103.0,101.0,13.4,1505.2,331.0,-0.8,1.8,2471.485,13.29,0.018,167.5
2023-08-14T05:25:03,42.805,6.029,0.012,-0.041,-0.059,103.0,102.0,101.0,13.4,1505.2,349.9,-0.8,1.8,2471.454,13.29,0.042,163.7
2023-08-14T05:28:03,42.805,6.029,0.031,-0.008,-0.059,104.0,101.0,101.0,13.4,1505.2,320.5,-0.7,1.8,2471.482,13.29,0.032,104.5
2023-08-14T05:31:03,42.805,6.029,0.01,-0.024,-0.012,104.0,102.0,102.0,13.3,1505.2,333.9,-0.8,1.8,2471.46,13.29,0.026,157.4
2023-08-14T05:34:03,42.805,6.029,0.014,-0.016,-0.037,102.0,102.0,101.0,13.4,1505.2,332.8,-0.8,1.8,2471.489,13.29,0.021,138.8
2023-08-14T05:37:03,42.805,6.029,0.013,-0.027,-0.03,102.0,102.0,101.0,13.3,1505.2,329.7,-0.8,1.9,2471.457,13.29,0.029,154.3
2023-08-14T05:40:03,42.805,6.029,0.004,-0.029,-0.015,101.0,102.0,102.0,13.3,1505.2,331.9,-0.7,1.8,2471.498,13.29,0.029,172.2
2023-08-14T05:43:03,42.805,6.029,0.005,-0.027,-0.056,103.0,102.0,101.0,13.4,1505.2,332.9,-0.8,1.8,2471.452,13.29,0.027,169.5
2023-08-14T05:46:03,42.805,6.029,0.006,-0.001,-0.023,104.0,101.0,102.0,13.4,1505.2,324.9,-0.7,1.8,2471.486,13.29,0.006,99.5
2023-08-14T05:49:03,42.805,6.029,0.027,-0.026,-0.016,103.0,102.0,101.0,13.4,1505.2,330.2,-0.7,1.8,2471.481,13.29,0.037,133.9
2023-08-14T05:52:03,42.805,6.029,0.009,-0.006,-0.033,102.0,102.0,101.0,13.4,1505.2,341.8,-0.8,1.8,2471.473,13.29,0.01,123.7
2023-08-14T05:55:03,42.805,6.029,0.0,-0.019,-0.034,104.0,102.0,100.0,13.4,1505.2,335.0,-0.8,1.8,2471.452,13.29,0.019,180.0
2023-08-14T05:58:03,42.805,6.029,0.014,-0.026,-0.055,103.0,102.0,100.0,13.4,1505.2,335.6,-0.8,1.8,2471.477,13.29,0.029,151.7
2023-08-14T06:01:03,42.805,6.029,0.002,-0.01,-0.034,102.0,102.0,101.0,13.4,1505.2,339.3,-0.8,1.8,2471.481,13.29,0.01,168.7
2023-08-14T06:04:03,42.805,6.029,0.023,-0.032,-0.054,103.0,101.0,101.0,13.3,1505.2,320.8,-0.8,1.8,2471.466,13.29,0.039,144.3
2023-08-14T06:07:03,42.805,6.029,0.0,-0.034,-0.016,103.0,101.0,101.0,13.3,1505.2,342.7,-0.8,1.8,2471.504,13.29,0.034,180.0
2023-08-14T06:10:03,42.805,6.029,-0.017,-0.015,-0.03,103.0,102.0,100.0,13.4,1505.2,328.8,-0.8,1.8,2471.497,13.29,0.022,228.6
2023-08-14T06:13:03,42.805,6.029,0.017,-0.008,-0.016,101.0,104.0,101.0,13.4,1505.2,321.3,-0.8,1.8,2471.478,13.29,0.018,115.2
2023-08-14T06:16:03,42.805,6.029,-0.014,0.002,-0.009,103.0,102.0,100.0,13.3,1505.2,347.1,-0.8,1.8,2471.487,13.29,0.014,278.1
2023-08-14T06:19:03,42.805,6.029,-0.02,-0.015,-0.039,103.0,102.0,101.0,13.4,1505.2,328.5,-0.8,1.8,2471.513,13.29,0.025,233.1
2023-08-14T06:22:03,42.805,6.029,0.003,-0.046,-0.043,103.0,103.0,100.0,13.4,1505.2,340.1,-0.8,1.8,2471.459,13.29,0.046,176.3
2023-08-14T06:25:03,42.805,6.029,0.006,-0.011,-0.036,103.0,103.0,101.0,13.4,1505.2,339.5,-0.8,1.8,2471.491,13.29,0.012,151.4
2023-08-14T06:28:03,42.805,6.029,0.003,0.001,-0.028,103.0,103.0,101.0,13.4,1505.2,327.0,-0.8,1.8,2471.474,13.29,0.003,71.6
2023-08-14T06:31:03,42.805,6.029,0.001,-0.002,-0.048,103.0,102.0,101.0,13.4,1505.2,321.4,-0.8,1.8,2471.482,13.29,0.002,153.4
2023-08-14T06:34:03,42.805,6.029,0.009,-0.02,-0.012,102.0,103.0,102.0,13.4,1505.2,325.4,-0.8,1.8,2471.464,13.29,0.021,155.8
2023-08-14T06:37:03,42.805,6.029,-0.004,-0.003,-0.018,103.0,102.0,101.0,13.4,1505.2,331.2,-0.8,1.8,2471.467,13.29,0.005,233.1
2023-08-14T06:40:03,42.805,6.029,-0.015,-0.01,-0.02,103.0,102.0,101.0,13.4,1505.2,352.0,-0.8,1.8,2471.494,13.29,0.018,236.3
2023-08-14T06:43:03,42.805,6.029,-0.027,-0.002,-0.048,102.0,102.0,100.0,13.3,1505.2,349.5,-0.8,1.8,2471.486,13.29,0.027,265.8
2023-08-14T06:46:03,42.805,6.029,-0.016,0.004,-0.045,103.0,101.0,101.0,13.3,1505.2,334.9,-0.8,1.8,2471.46,13.29,0.016,284.0
2023-08-14T06:49:03,42.805,6.029,0.0,-0.001,-0.014,103.0,102.0,100.0,13.3,1505.2,347.1,-0.8,1.8,2471.476,13.29,0.001,180.0
2023-08-14T06:52:03,42.805,6.029,-0.019,0.007,-0.033,102.0,103.0,101.0,13.4,1505.2,343.4,-0.7,1.8,2471.477,13.29,0.02,290.2
2023-08-14T06:55:03,42.805,6.029,0.003,-0.001,-0.004,103.0,102.0,100.0,13.4,1505.2,326.0,-0.8,1.8,2471.423,13.29,0.003,108.4
2023-08-14T06:58:03,42.805,6.029,0.01,-0.011,-0.023,103.0,102.0,101.0,13.4,1505.2,340.7,-0.8,1.8,2471.465,13.29,0.014,137.7
2023-08-14T07:04:03,42.805,6.029,0.007,-0.027,-0.062,102.0,102.0,100.0,13.4,1505.2,348.9,-0.8,1.8,2471.498,13.29,0.027,165.5
2023-08-14T07:07:03,42.805,6.029,-0.033,-0.029,-0.025,103.0,101.0,101.0,13.4,1505.2,341.2,-0.8,1.9,2471.488,13.29,0.043,228.7
2023-08-14T07:10:03,42.805,6.029,-0.013,-0.023,-0.038,102.0,102.0,101.0,13.3,1505.2,326.5,-0.8,1.8,2471.481,13.29,0.026,209.5
2023-08-14T07:13:03,42.805,6.029,-0.031,0.0,-0.062,102.0,102.0,101.0,13.4,1505.2,325.6,-0.7,1.8,2471.501,13.29,0.03,270.0
2023-08-14T07:16:03,42.805,6.029,-0.025,-0.003,-0.019,103.0,101.0,102.0,13.4,1505.2,323.5,-0.8,1.8,2471.498,13.29,0.025,263.2
2023-08-14T07:19:03,42.805,6.029,-0.004,-0.025,-0.034,102.0,102.0,101.0,13.3,1505.2,340.8,-0.7,1.8,2471.499,13.29,0.025,189.1
2023-08-14T07:22:03,42.805,6.029,-0.012,-0.002,0.003,103.0,101.0,101.0,13.4,1505.2,347.9,-0.8,1.8,2471.464,13.29,0.012,260.5
2023-08-14T07:25:03,42.805,6.029,-0.02,-0.006,-0.055,102.0,102.0,100.0,13.4,1505.2,322.2,-0.8,1.8,2471.487,13.29,0.02,253.3
2023-08-14T07:28:03,42.805,6.029,-0.021,-0.008,-0.019,102.0,101.0,101.0,13.3,1505.2,329.3,-0.7,1.8,2471.467,13.29,0.022,249.1
2023-08-14T07:31:03,42.805,6.029,-0.019,-0.027,-0.045,103.0,101.0,100.0,13.4,1505.2,342.5,-0.8,1.8,2471.447,13.29,0.033,215.1
2023-08-14T07:34:03,42.805,6.029,-0.013,-0.01,-0.033,102.0,103.0,101.0,13.3,1505.2,333.9,-0.7,1.8,2471.478,13.29,0.016,232.4
2023-08-14T07:37:03,42.805,6.029,-0.033,-0.002,-0.067,103.0,103.0,101.0,13.3,1505.2,351.8,-0.8,1.8,2471.435,13.29,0.033,266.5
2023-08-14T07:40:03,42.805,6.029,0.018,-0.015,-0.034,103.0,102.0,101.0,13.4,1505.2,331.2,-0.7,1.8,2471.464,13.29,0.023,129.8
2023-08-14T07:43:03,42.805,6.029,-0.004,0.0,-0.002,103.0,103.0,101.0,13.4,1505.2,345.7,-0.8,1.8,2471.46,13.29,0.004,270.0
2023-08-14T07:46:03,42.805,6.029,-0.011,-0.013,-0.053,103.0,102.0,101.0,13.4,1505.2,340.0,-0.7,1.8,2471.451,13.29,0.017,220.2
2023-08-14T07:49:03,42.805,6.029,-0.029,0.005,-0.029,102.0,102.0,100.0,13.4,1505.2,340.4,-0.8,1.8,2471.475,13.29,0.029,279.8
2023-08-14T07:52:03,42.805,6.029,-0.026,-0.012,-0.043,103.0,103.0,101.0,13.4,1505.2,342.5,-0.8,1.8,2471.462,13.29,0.028,245.2
2023-08-14T07:55:03,42.805,6.029,-0.018,-0.015,-0.023,102.0,102.0,101.0,13.4,1505.2,320.0,-0.7,1.8,2471.456,13.29,0.023,230.2
2023-08-14T07:58:03,42.805,6.029,-0.016,-0.001,-0.03,103.0,102.0,101.0,13.3,1505.2,336.1,-0.8,1.8,2471.453,13.29,0.016,266.4
2023-08-14T08:04:03,42.805,6.029,-0.042,-0.004,-0.051,102.0,102.0,101.0,13.4,1505.2,330.5,-0.8,1.8,2471.491,13.29,0.042,264.6
2023-08-14T08:07:03,42.805,6.029,-0.006,-0.016,0.0,102.0,102.0,101.0,13.4,1505.2,331.5,-0.8,1.8,2471.469,13.29,0.017,200.6
2023-08-14T08:10:03,42.805,6.029,-0.042,0.0,-0.024,103.0,102.0,101.0,13.4,1505.2,330.2,-0.8,1.8,2471.492,13.29,0.042,270.0
2023-08-14T08:13:03,42.805,6.029,-0.013,-0.003,-0.028,102.0,102.0,101.0,13.4,1505.2,345.7,-0.8,1.8,2471.498,13.29,0.013,257.0
2023-08-14T08:16:03,42.805,6.029,-0.04,0.007,-0.044,103.0,102.0,101.0,13.3,1505.2,338.4,-0.8,1.8,2471.45,13.29,0.04,279.9
2023-08-14T08:19:03,42.805,6.029,-0.024,0.0,-0.041,102.0,103.0,101.0,13.4,1505.2,348.2,-0.8,1.8,2471.458,13.29,0.024,270.0
2023-08-14T08:22:03,42.805,6.029,-0.013,-0.009,-0.053,103.0,102.0,101.0,13.4,1505.2,333.4,-0.8,1.8,2471.452,13.29,0.015,235.3
2023-08-14T08:25:03,42.805,6.029,-0.008,-0.006,-0.048,103.0,102.0,102.0,13.3,1505.2,325.3,-0.8,1.8,2471.457,13.29,0.01,233.1
2023-08-14T08:28:03,42.805,6.029,-0.026,-0.002,-0.035,102.0,102.0,101.0,13.3,1505.2,331.6,-0.8,1.8,2471.465,13.29,0.026,265.6
2023-08-14T08:31:03,42.805,6.029,-0.011,-0.018,-0.043,101.0,102.0,101.0,13.4,1505.2,328.2,-0.7,1.8,2471.457,13.29,0.021,211.4
2023-08-14T08:34:03,42.805,6.029,-0.04,-0.004,-0.044,103.0,102.0,100.0,13.4,1505.2,336.5,-0.7,1.8,2471.456,13.29,0.04,264.3
2023-08-14T08:37:03,42.805,6.029,-0.026,0.009,-0.024,102.0,103.0,101.0,13.4,1505.2,339.1,-0.7,1.8,2471.399,13.29,0.027,289.1
2023-08-14T08:40:03,42.805,6.029,-0.029,0.022,0.006,102.0,102.0,101.0,13.3,1505.2,322.2,-0.7,1.8,2471.463,13.29,0.036,307.2
2023-08-14T08:43:03,42.805,6.029,-0.013,0.007,-0.048,103.0,101.0,101.0,13.4,1505.2,336.8,-0.7,1.8,2471.439,13.29,0.014,298.3
2023-08-14T08:46:03,42.805,6.029,-0.029,-0.005,-0.037,101.0,102.0,102.0,13.4,1505.2,337.2,-0.8,1.8,2471.418,13.29,0.029,260.2
2023-08-14T08:49:03,42.805,6.029,-0.019,0.015,-0.01,104.0,102.0,101.0,13.3,1505.2,349.1,-0.8,1.8,2471.409,13.29,0.024,308.3
2023-08-14T08:52:03,42.805,6.029,-0.014,0.001,-0.041,103.0,102.0,101.0,13.4,1505.2,321.1,-0.8,1.8,2471.457,13.29,0.014,274.1
2023-08-14T08:55:03,42.805,6.029,-0.058,0.005,-0.007,102.0,101.0,100.0,13.4,1505.2,327.7,-0.8,1.8,2471.438,13.29,0.058,274.9
2023-08-14T08:58:03,42.805,6.029,-0.028,0.007,-0.06,103.0,102.0,100.0,13.4,1505.2,340.4,-0.8,1.8,2471.414,13.29,0.028,284.0
2023-08-14T09:01:03,42.805,6.029,-0.033,0.022,-0.031,101.0,101.0,101.0,13.4,1505.2,339.1,-0.7,1.8,2471.404,13.29,0.039,303.7
2023-08-14T09:04:03,42.805,6.029,-0.025,0.002,-0.033,102.0,102.0,101.0,13.4,1505.2,338.8,-0.7,1.8,2471.407,13.29,0.025,274.6
2023-08-14T09:07:03,42.805,6.029,-0.024,-0.02,-0.031,102.0,102.0,100.0,13.3,1505.2,327.1,-0.8,1.8,2471.4,13.29,0.031,230.2
2023-08-14T09:10:03,42.805,6.029,-0.045,0.037,-0.024,102.0,101.0,101.0,13.4,1505.2,343.6,-0.7,1.8,2471.434,13.29,0.058,309.4
2023-08-14T09:13:03,42.805,6.029,-0.035,-0.001,-0.031,103.0,101.0,101.0,13.3,1505.2,341.1,-0.8,1.8,2471.404,13.29,0.035,268.4
2023-08-14T09:16:03,42.805,6.029,-0.005,0.007,-0.013,103.0,101.0,100.0,13.4,1505.2,332.0,-0.8,1.8,2471.36,13.29,0.008,324.5
2023-08-14T09:19:03,42.805,6.029,-0.01,0.008,-0.023,102.0,100.0,101.0,13.4,1505.2,350.3,-0.8,1.8,2471.409,13.29,0.012,308.7
2023-08-14T09:22:03,42.805,6.029,-0.027,0.009,-0.027,103.0,101.0,100.0,13.4,1505.2,319.8,-0.8,1.8,2471.415,13.29,0.028,288.4
2023-08-14T09:25:03,42.805,6.029,-0.032,-0.002,-0.036,103.0,102.0,100.0,13.4,1505.2,320.3,-0.8,1.8,2471.397,13.29,0.032,266.4
2023-08-14T09:28:03,42.805,6.029,-0.036,-0.001,-0.03,103.0,103.0,100.0,13.4,1505.2,342.5,-0.7,1.8,2471.4,13.29,0.036,268.4
2023-08-14T09:31:03,42.805,6.029,-0.002,0.011,-0.007,102.0,102.0,101.0,13.3,1505.2,338.6,-0.7,1.8,2471.422,13.29,0.011,349.7
2023-08-14T09:34:03,42.805,6.029,-0.02,0.007,-0.001,102.0,101.0,101.0,13.3,1505.2,351.8,-0.7,1.8,2471.407,13.29,0.021,289.3
2023-08-14T09:37:03,42.805,6.029,-0.033,0.018,-0.003,102.0,101.0,101.0,13.4,1505.2,321.4,-0.8,1.8,2471.425,13.29,0.037,298.6
2023-08-14T09:40:03,42.805,6.029,-0.02,0.0,-0.024,103.0,102.0,100.0,13.4,1505.2,340.5,-0.8,1.8,2471.37,13.29,0.02,270.0
2023-08-14T09:43:03,42.805,6.029,-0.011,0.013,-0.028,101.0,103.0,101.0,13.4,1505.2,324.0,-0.7,1.8,2471.382,13.29,0.017,319.8
2023-08-14T09:46:03,42.805,6.029,-0.005,0.019,-0.005,103.0,101.0,100.0,13.4,1505.2,328.8,-0.8,1.8,2471.37,13.29,0.019,345.3